星链-32499 (STARLINK-32499)

导读

STARLINK-32499是美国SpaceX星链星座的卫星,于2024年11月14日发射升空,属于星链网络扩容项目,用于补充全球低轨卫星互联网覆盖规模,为全球偏远地区、移动场景提供宽带互联网服务,该卫星运行在近地轨道,依托星链组网提升网络容量与服务稳定性,是美国低轨通信星座建设的组成部分。

Basic Information
目录编号:
61959
目录名称:
STARLINK-32499
国际标识:
2024-210A
轨道中心:
EARTH
卫星名称:
星链-32499
卫星全名:
星链-32499 (STARLINK-32499)
卫星状态:
在轨 (已飞行659 天)
发射日期:
2024-11-14 UTC
国别 :
美国 (US)
星等 :
--
Orbit Information
数据来源 国际轨道数据
星历时间: 2026-09-04T09:22:46+0800
10小时前
查看轨道信息
半长轴: 6861.157km
偏心率: 0.0000778
轨道倾角: 43.001°
近地点辐角 234.303°
升交点赤经 252.097°
平近点角 125.775°
近地点: 482.486km
远地点: 483.554km
周期: 94.266分钟
每日圈数: 15.2759
Detailed Information
固有亮度:
5
最大亮度:
2.5
卫星平台:
Starlink V1.0
覆盖范围:
全球
运营商:
太空探索技术公司
运营商所在国:
美国
制造商(研发单位):
太空探索技术公司
制造商所在国:
美国
使用方式:
暂无
Satellite Introduction
Starlink 计划是 SpaceX 推出的全球卫星互联网项目,通过发射低轨道卫星,为全球尤其是偏远地区提供高速、低延迟的互联网服务。自 2019 年起,Starlink 已部署数千颗卫星,旨在缩小全球数字鸿沟,推动互联网普及。该项目还为军事、航空等行业提供通信支持,带来广泛经济效益。
2D Orbit Map
3D Orbit Map
Orbit Altitude Analysis Chart
Orbit Inclination Analysis Chart
Orbit Comprehensive Analysis Chart
View Comprehensive Chart
Conjunction Data List
Event ID Objects TCA Miss Dist (km) Collision Risk Probability Collision Risk Index (CRI) Action
CDM_260904-212105-880906-195921
2026-09-04T
21:21:47+0000
0.513 km
远距离
4.777227E-5 中风险 0.69
CDM_260905-094805-683606-195921
2026-09-05T
09:48:37+0000
1.010 km
极远距离
1.448781E-5 中风险 0.58
CDM_260905-011705-880906-195921
2026-09-05T
01:17:10+0000
0.995 km
远距离
5.591728E-6 低风险 0.5
CDM_260905-081405-683606-195921
2026-09-05T
08:14:27+0000
1.975 km
极远距离
1.747111E-6 低风险 0.4
CDM_260905-131706-195906-403921
2026-09-05T
13:17:25+0000
2.829 km
极远距离
1.272864E-6 低风险 0.37
CDM_260906-173305-950006-195921
2026-09-06T
17:33:04+0000
2.725 km
极远距离
1.143765E-6 低风险 0.36
CDM_260905-161106-195906-262421
2026-09-05T
16:11:06+0000
2.988 km
极远距离
1.140027E-6 低风险 0.36
CDM_260904-234305-880906-195921
2026-09-04T
23:43:01+0000
1.702 km
极远距离
1.055804E-6 低风险 0.35
CDM_260904-225505-880906-195921
2026-09-04T
22:55:57+0000
1.732 km
极远距离
1.008973E-6 低风险 0.35
CDM_260904-194705-880906-195921
2026-09-04T
19:47:38+0000
2.240 km
极远距离
5.771122E-7 极低风险 0.3